Content
SEND FEEDBACK

Daily
Averages
Monthly
Summary
United States of America

EARTH CITY, MISSOURI


Home > North America > United States > Missouri
Elevation: 145 meters     Latitude: 38 46N     Longitude: 090 30W

WEATHER
 
SELECT A DAY
Number of Records: 203,371;   Date Range: 1/1/95 - 7/23/14
 
SHARE

PRINT THIS DATA

[ ← Previous Day ]
WEATHER ALMANAC - 16 MARCH, 2013
[ Next Day → ]
[ °F ]   °C
Weather ElementAverageHighLow
Temperature7.7 °C17 °C (2:51 am)4 °C (10:45 pm)
Dewpoint2.8 °C7.2 °C (5:51 am)1 °C (10:45 pm)
Humidity72.4 %83 % (9:51 pm)48 % (2:51 am)
Barometer1013.5 hPa1018.6 hPa (10:51 pm)1004.1 hPa (2:51 am)
Wind Speed16.7 km/h33.3 km/h (8:51 am)
Wind Gust38.9 km/h (7:51 am)
Weather ElementAverage
Visibility10 km
Wind DirectionSSW (207.1 °)

Weather ElementTotal
Precipitation2.79 mm
Heating Degree Days7.8 (Base 18.3)
Growing Degree Days0.5 (Base 10)
Averaged from 28 records on 16 March, 2013
WEATHER CONDITIONS BREAKOUT
WIND DIRECTION BREAKOUT
WEATHER BY HOUR - 16 MARCH, 2013
[ °F ]   °C
Local TimeTemperatureDewpointHumidityBarometerVisibilityWind DirectionWind SpeedGust SpeedPrecipitationEventsConditions
2:51 AM17 °C6 °C48 %1004.1 hPa16.1 kmWest (260°)9.3 km/hScattered Clouds
3:51 AM16.1 °C6.1 °C52 %1004.1 hPa16.1 kmWest (280°)16.7 km/hScattered Clouds
4:51 AM11.1 °C5.6 °C69 %1004.7 hPa16.1 kmWNW (300°)16.7 km/hScattered Clouds
5:51 AM13.3 °C7.2 °C67 %1006.1 hPa16.1 kmWNW (290°)20.4 km/hScattered Clouds
6:51 AM11.1 °C6.1 °C71 %1007.8 hPa16.1 kmNW (310°)16.7 km/hScattered Clouds
7:51 AM8.9 °C5 °C77 %1009.5 hPa11.3 kmNNW (330°)27.8 km/h38.9 km/hMostly Cloudy
8:28 AM8 °C4 °C76 %1011.2 hPa8 kmNNW (330°)25.9 km/h37 km/hHaze
8:51 AM7.2 °C3.3 °C76 %1011.9 hPa8 kmNW (320°)33.3 km/h38.9 km/hHaze
8:58 AM7 °C3 °C76 %1011.9 hPa6.4 kmNNW (330°)25.9 km/h38.9 km/hHaze
9:51 AM5.6 °C2.2 °C79 %1013.5 hPa4.8 kmNNW (340°)24.1 km/h38.9 km/hHaze
10:34 AM6 °C2 °C76 %1013.9 hPa6.4 kmNNW (340°)18.5 km/hHaze
10:51 AM6.7 °C2.2 °C73 %1013.9 hPa6.4 kmNNW (330°)16.7 km/hHaze
11:32 AM7 °C2 °C71 %1014.6 hPa6.4 kmNorth (360°)14.8 km/hHaze
11:51 AM7.2 °C2.2 °C71 %1014.9 hPa6.4 kmNNW (340°)18.5 km/hHaze
12:47 PM7 °C2 °C71 %1015.6 hPa8 kmNorth (350°)20.4 km/hHaze
12:51 PM7.8 °C1.7 °C66 %1015.9 hPa8 kmNorth (360°)22.2 km/hHaze
1:51 PM7.8 °C1.7 °C66 %1015.6 hPa9.7 kmNorth (10°)24.1 km/hHaze
2:51 PM7.8 °C1.7 °C66 %1016.3 hPa9.7 kmNorth (360°)16.7 km/hHaze
3:51 PM7.2 °C1.1 °C65 %1015.9 hPa9.7 kmNorth (10°)22.2 km/hHaze
5:51 PM6.1 °C1.7 °C74 %1016.9 hPa8 kmNorth (10°)13 km/h0.25 mmRainLight Rain
6:51 PM5.6 °C1.7 °C76 %1017.3 hPa6.4 kmNNE (30°)13 km/h0.25 mmRainLight Rain
7:12 PM6 °C2 °C76 %1016.9 hPa8 kmNNE (20°)11.1 km/h0.25 mmRainLight Rain
7:51 PM5 °C1.7 °C79 %1017.6 hPa8 kmNE (50°)9.3 km/h0.51 mmRainLight Rain
8:51 PM5 °C1.7 °C79 %1017.9 hPa8 kmNE (40°)7.4 km/h0.25 mmRainLight Rain
9:51 PM4.4 °C1.7 °C83 %1017.9 hPa8 kmNE (50°)11.1 km/h0.76 mmRainLight Rain
10:45 PM4 °C1 °C81 %1017.9 hPa12.9 kmCalm0.25 mmOvercast
10:51 PM4.4 °C1.7 °C83 %1018.6 hPa12.9 kmCalm0.25 mmOvercast
11:51 PM4.4 °C1.1 °C79 %1018.3 hPa16.1 kmNE (50°)13 km/hOvercast
Hourly data recorded from KSTL, located 0 kilometers away from Earth City, Missouri







STORIES FROM OUR PARTNERS